Ouargla, Algeria

5:03 AM CET on July 28, 2017 (GMT +0100)
Ouargla

Weather History for DAUU - October, 2012

Change the Weather History Date:

Friday, October 12, 2012

  Actual Average Record
Temperature  
Mean Temperature 86 °F -  
Max Temperature 101 °F - - ()
Min Temperature 70 °F - - ()
Cooling Degree Days 20    
Growing Degree Days 36 (Base 50)    
Moisture  
Dew Point 45 °F    
Average Humidity 23    
Maximum Humidity 38    
Minimum Humidity 8    
Precipitation  
Precipitation 0.00 in - - ()
Sea Level Pressure  
Sea Level Pressure 29.83 in    
Wind  
Wind Speed 2 mph ()    
Max Wind Speed 16 mph    
Max Gust Speed -    
Visibility 6.0 miles    
Events      
T = Trace of Precipitation, MM = Missing Value Source: Averaged Metar Reports

Daily Weather History Graph

Daily Weather History Graph

Search for Another Location

Airport or City:

Trip Planner

Search our weather history database for the weather conditions in past years. The results will help you decide how hot, cold, wet, or windy it might be!

Date:

Astronomy

Oct. 12, 2012 Rise Set
Actual Time 6:39 AM CET 6:09 PM CET
Civil Twilight 6:15 AM CET 6:33 PM CET
Nautical Twilight 5:46 AM CET 7:02 PM CET
Astronomical Twilight 5:18 AM CET 7:30 PM CET
Moon 3:16 AM CET (10/12) 4:01 PM CET (10/12)
Length of Visible Light 12h 18m
Length of Day
11h 29m
Waning Crescent, 12% of the Moon is Illuminated
Oct 12
Waning Crescent
Oct 15
New
Oct 22
First Quarter
Oct 29
Full
Nov 7
Last Quarter

Hourly Weather History & Observations

Time (CET) Temp. Dew Point Humidity Pressure Visibility Wind Dir Wind Speed Gust Speed Precip Events Conditions
12:00 AM 80.6 °F 46.4 °F 30% 29.86 in - SSE 4.6 mph - N/A   Clear
1:00 AM 77 °F 43 °F 19% 29.83 in 6 mi Calm Calm - -  
1:00 AM 77.0 °F 42.8 °F 29% 29.86 in - Calm Calm - N/A   Clear
2:00 AM 75.2 °F 42.8 °F 31% 29.86 in - Calm Calm - N/A   Clear
3:00 AM 75.2 °F 42.8 °F 31% 29.83 in - Calm Calm - N/A   Clear
4:00 AM 74 °F 42 °F 21% 29.80 in 6 mi SE 6.9 mph - -  
4:00 AM 73.4 °F 42.8 °F 33% 29.83 in - SE 6.9 mph - N/A   Clear
5:00 AM 73.4 °F 41.0 °F 31% 29.83 in - Calm Calm - N/A   Clear
6:00 AM 71.6 °F 42.8 °F 35% 29.83 in - Calm Calm - N/A   Clear
7:00 AM 71 °F 44 °F 26% 29.82 in 6 mi Calm Calm - -  
7:00 AM 71.6 °F 44.6 °F 38% 29.83 in - Calm Calm - N/A   Clear
9:00 AM 75.2 °F 42.8 °F 31% 29.86 in - Calm Calm - N/A   Clear
10:00 AM 84 °F 46 °F 16% 29.85 in 6 mi Calm Calm - -  
10:00 AM 84.2 °F 46.4 °F 27% 29.86 in - Calm Calm - N/A   Clear
11:00 AM 84.2 °F 46.4 °F 27% 29.86 in - Calm Calm - N/A   Clear
12:00 PM 91.4 °F 42.8 °F 18% 29.86 in - Calm Calm - N/A   Clear
1:00 PM 96 °F 45 °F 10% 29.82 in 6 mi Calm Calm - -  
1:00 PM 95.0 °F 44.6 °F 18% 29.83 in - Calm Calm - N/A   Clear
2:00 PM 96.8 °F 44.6 °F 17% 29.80 in - Calm Calm - N/A   Clear
3:00 PM 98.6 °F 44.6 °F 16% 29.80 in - SW 11.5 mph - N/A   Clear
4:00 PM 100 °F 45 °F 8% 29.77 in 6 mi Calm Calm - -  
4:00 PM 100.4 °F 44.6 °F 15% 29.80 in - Calm Calm - N/A   Clear
5:00 PM 98.6 °F 44.6 °F 16% 29.77 in - Calm Calm - N/A   Clear
6:00 PM 96.8 °F 46.4 °F 18% 29.77 in - Calm Calm - N/A   Clear
7:00 PM 91 °F 45 °F 12% 29.80 in 6 mi WSW 5.8 mph - -  
8:00 PM 89.6 °F 44.6 °F 21% 29.83 in - WNW 11.5 mph - N/A   Clear
9:00 PM 87.8 °F 46.4 °F 24% 29.86 in - NNW 9.2 mph - N/A   Clear
10:00 PM 83 °F 48 °F 19% 29.86 in 6 mi NNW 16.1 mph - -  
10:00 PM 84.2 °F 48.2 °F 29% 29.89 in - NNW 16.1 mph - N/A   Clear
11:00 PM 82.4 °F 48.2 °F 30% 29.89 in - NNW 13.8 mph - N/A   Clear